User: anonymous   Login
Location: Unspecified
(0.0000°N, 0.0000°E)
Time: 14:47:37
(UTC+02:00)
Language:

ARIANE DEB (SPELDA) - Orbit

View from above orbital plane
View from above orbital plane
View from above satellite
View from above satellite

Ground track
Ground track

The orbit data is extracted from the following two-line orbital elements,

1 27402U 02015D   17268.74837946  .00000119  00000-0  41955-3 0  9993
2 27402   3.7625  66.6038 7080108  64.7156 350.7093  2.49266773136577
Epoch (UTC): 25 September 2017 17:57:39
Eccentricity: 0.7080108
inclination: 3.7625°
perigee height: 331 km
apogee height: 32866 km
right ascension of ascending node: 66.6038°
argument of perigee: 64.7156°
revolutions per day: 2.49266773
mean anomaly at epoch: 350.7093°
orbit number at epoch: 13657

The dashed part of the orbit path shows where the satellite is in the earth's shadow,  

DLR